Terminal Aerodrome Forecast
Issued by NWS

Home | Current Version | Previous Version | Graphics & Text | Print | Product List | Glossary On
Versions: 1 2 3 4 5 6 7 8 9 10 11 12 13 14 15
000
FTUS43 KUNR 230107 AAA
TAFGCC
TAF AMD
KGCC 230107Z 2301/2324 14015KT P6SM VCTS BKN150CB
     FM230300 21012KT P6SM SCT150
     FM231000 30017G27KT P6SM SCT200=

USA.gov is the U.S. government's official web portal to all federal, state and local government web resources and services.